User: anonymous   Login
Location: Ferma
(41.9500°N, 44.5167°E)
Time: 18:25:45
(UTC+00:00)
Language:

BREEZE-M DEB (TANK) - Orbit

View from above orbital plane
View from above orbital plane
View from above satellite
View from above satellite

Ground track
Ground track

The orbit data is extracted from the following two-line orbital elements,

1 39362U 13058C   22020.56583720  .00001993  00000-0  70564-3 0  9999
2 39362  49.5263 130.6837 5177348 187.9945 158.7639  5.27347329157802
Epoch (UTC): 20 January 2022 13:34:48
Eccentricity: 0.5177348
inclination: 49.5263°
perigee height: 346 km
apogee height: 14782 km
right ascension of ascending node: 130.6837°
argument of perigee: 187.9945°
revolutions per day: 5.27347329
mean anomaly at epoch: 158.7639°
orbit number at epoch: 15780

The dashed part of the orbit path shows where the satellite is in the earth's shadow,  

DLR